Wind_Speed
11 11 11 11 13 13 13 13 14 16 18 19 18 16 16 14 5 5 4 7 9 11 10 9 7 6 3 3 3 3 4 2 4 4 4 8 6 3 1 6 4 4 5 8 15
13 12 11 12 13 13 13 13 14 15 18 18 17 15 15 12 4 6 6 8 11 9 8 11 6 7 3 2 2 4 4 7 5 3 4 5 10 13 3 7 5 7 7 11 8
13 13 12 13 13 12 12 12 14 15 17 18 16 15 13 6 3 1 5 8 10 10 6 5 3 2 2 3 2 2 4 4 4 4 3 5 8 2 6 0 5 16 10 12 8
15 14 14 13 15 14 12 12 13 15 17 17 15 15 9 2 1 1 4 7 6 7 8 7 5 3 2 2 4 2 2 2 5 5 5 5 4 8 5 9 9 9 14 9 10
17 16 15 14 15 14 14 12 12 14 15 15 13 12 3 1 4 4 2 4 4 5 8 3 4 1 2 2 4 3 3 5 5 11 8 6 6 7 12 11 9 11 11 10 11
19 17 16 14 15 14 13 14 12 13 14 12 9 6 2 2 6 1 4 2 4 5 3 2 2 1 1 1 0 1 3 8 4 7 4 9 8 1 4 10 17 14 13 12 11
22 19 17 15 14 13 14 13 13 13 12 9 6 3 0 5 4 5 4 1 2 3 3 1 2 3 1 3 2 3 4 5 6 9 4 13 3 7 11 12 19 22 17 16 14
24 20 17 15 13 14 14 13 14 13 7 4 3 1 4 1 2 2 4 4 2 3 3 3 5 5 3 3 6 5 5 6 7 10 5 9 11 5 11 22 25 18 21 21 19
26 22 17 15 12 13 14 12 14 7 3 1 1 1 4 0 1 2 3 2 4 3 9 8 5 4 6 3 5 7 4 5 6 9 7 5 26 19 17 16 24 22 21 19 24
29 23 17 13 9 10 10 12 6 3 1 1 2 1 1 1 0 1 4 4 6 1 4 7 5 4 5 5 1 5 5 5 8 5 5 9 25 24 26 14 20 26 26 23 23
32 24 18 12 8 7 7 2 3 2 1 5 3 2 0 2 2 1 3 4 4 6 3 4 6 4 4 3 3 4 4 11 10 9 7 8 22 25 23 22 21 23 26 26 25
35 27 20 14 7 5 2 4 4 3 4 6 4 3 4 1 1 2 2 4 4 4 3 5 4 1 4 2 5 6 8 10 11 1 12 14 27 22 18 13 18 21 22 24 26
38 30 22 15 7 6 5 7 5 3 1 5 5 4 4 7 4 5 4 3 4 3 3 5 5 2 3 5 4 4 5 5 12 21 10 9 12 11 26 15 19 21 21 21 24
41 32 22 15 5 11 7 10 4 6 2 5 5 5 5 5 1 3 3 4 2 3 6 4 2 3 4 3 2 4 3 8 12 9 6 10 8 11 14 20 22 25 30 23 22
41 33 27 21 8 10 11 12 9 2 3 2 4 4 4 6 7 3 3 4 5 3 4 2 0 4 3 3 1 7 7 11 16 12 2 1 1 10 20 18 16 24 36 31 25
42 34 27 22 9 14 21 15 5 4 7 4 5 6 5 2 2 3 4 7 3 4 5 2 1 4 4 5 2 8 6 9 1 2 2 4 2 18 7 10 19 20 26 32 24
40 36 33 22 12 22 23 7 3 5 1 6 5 7 6 5 2 4 3 3 3 3 2 5 2 3 1 3 3 7 6 4 5 4 4 4 11 9 15 15 19 21 24 28 26
39 32 27 20 29 28 14 4 5 8 6 4 5 9 5 5 2 2 5 4 2 4 3 3 2 1 4 2 2 3 1 3 3 4 11 16 5 6 15 14 20 18 22 30 22
36 25 23 20 29 28 4 3 12 5 7 8 5 5 3 2 6 3 2 6 5 5 5 4 3 2 3 2 5 2 1 5 3 9 5 5 7 12 19 23 21 19 20 21 21
27 12 10 24 24 17 3 11 7 3 4 4 6 5 5 5 4 4 6 3 4 3 3 5 1 2 4 3 2 3 2 4 2 4 6 3 8 5 22 25 27 24 20 20 22
28 6 17 34 20 5 7 6 4 2 6 4 4 4 5 5 3 3 6 1 3 4 2 4 3 3 2 1 4 2 2 2 2 2 3 6 7 6 18 22 25 23 19 18 21
8 6 24 27 6 3 4 5 5 5 4 4 3 5 4 4 4 2 5 4 2 5 3 1 4 1 6 6 5 4 4 3 1 3 5 5 7 12 26 23 22 18 18 19 18
7 4 10 4 6 9 4 5 3 4 3 4 3 2 3 4 5 4 5 3 4 3 6 5 1 2 5 4 3 1 2 0 6 7 3 5 7 20 22 25 20 15 16 18 20
4 5 2 2 2 13 6 5 5 6 5 5 4 4 6 4 4 5 4 2 1 3 8 5 3 6 6 6 3 4 6 5 2 4 5 7 20 22 25 24 17 17 17 18 15
2 4 6 9 3 4 5 6 11 5 3 4 3 3 7 4 3 4 3 3 3 7 4 4 3 4 6 8 5 8 6 5 0 8 3 11 18 13 15 18 17 18 18 19 18
4 5 3 13 9 6 2 5 9 6 4 4 7 7 5 5 5 6 6 2 3 3 3 2 2 3 3 9 6 3 2 4 5 3 6 13 11 15 9 11 19 17 18 20 19
3 4 5 3 4 4 4 5 8 8 6 4 14 6 7 6 6 7 4 4 6 6 3 3 2 2 3 2 3 1 4 5 3 2 4 4 10 12 12 13 15 16 16 17 19
Wind_Direction
299 307 318 327 331 333 337 340 348 350 347 344 345 347 350 358 360 27 30 355 342 342 354 0 20 52 92 75 73 123 71 190 233 178 251 303 306 203 319 253 309 254 312 277 314
290 297 310 320 326 326 327 334 339 345 347 345 344 346 348 359 69 41 11 10 2 350 359 11 354 4 42 46 33 93 124 217 213 241 267 295 299 308 337 320 280 289 268 294 293
278 286 297 308 318 320 324 325 331 336 342 344 344 344 347 20 88 36 7 356 0 18 10 5 348 26 60 21 59 97 192 191 257 272 19 271 299 277 313 333 282 295 301 304 298
273 278 290 300 307 310 320 327 330 332 338 343 342 342 339 54 199 107 19 4 3 0 35 25 22 34 16 24 353 29 238 57 293 297 319 275 267 298 256 250 258 280 290 293 289
266 272 281 290 298 306 311 320 330 331 338 336 340 344 338 6 220 145 338 339 8 33 43 37 51 52 348 14 342 167 329 311 276 302 280 284 257 245 282 298 293 285 298 296 288
260 265 274 285 293 298 307 309 325 332 335 325 342 349 263 266 135 75 352 352 27 31 356 19 149 183 39 43 150 306 293 301 350 303 331 338 288 268 288 331 347 338 323 311 295
252 254 262 275 286 295 299 307 315 328 325 314 342 8 74 223 195 326 5 339 23 345 310 266 153 82 106 328 317 309 346 345 18 350 12 337 94 168 344 348 334 321 323 318 305
245 248 254 269 281 292 298 306 313 321 314 324 339 358 240 181 224 58 38 80 329 332 261 287 149 100 33 308 11 24 56 11 321 15 350 49 286 343 314 333 312 305 303 301 293
238 242 244 255 270 281 294 306 313 314 252 276 194 166 270 259 219 356 31 28 340 64 62 94 78 77 15 40 10 16 323 315 314 341 348 54 293 301 314 307 298 297 291 286 291
238 230 239 250 253 276 299 305 304 302 172 149 216 289 11 231 240 34 85 87 66 63 35 44 53 70 26 47 309 305 309 278 291 281 298 284 273 291 296 292 282 287 287 284 280
231 227 224 225 239 275 304 290 17 340 201 217 174 129 291 315 267 138 51 84 36 50 76 20 70 103 113 110 187 239 250 279 278 275 299 249 281 288 291 286 279 269 274 278 275
225 218 214 207 216 252 255 118 133 122 326 238 258 279 238 192 126 270 116 84 65 95 70 39 114 183 141 69 36 354 302 294 302 213 309 290 288 294 284 285 287 282 273 268 269
216 212 203 197 202 199 169 149 131 133 201 289 199 179 185 157 197 203 119 105 111 91 90 136 166 144 109 58 28 270 250 276 286 313 222 281 282 332 306 307 301 294 279 270 267
208 203 193 180 182 172 150 146 149 167 21 254 203 242 137 140 194 203 147 127 86 130 126 132 177 66 82 101 40 301 241 277 280 324 301 72 290 314 311 312 309 328 323 295 272
200 193 186 194 178 173 161 154 144 99 267 132 153 145 137 163 148 46 48 46 140 127 110 168 266 46 102 237 283 250 285 261 281 276 290 47 138 271 304 297 323 348 330 310 290
191 187 179 186 173 162 146 142 115 66 240 186 142 146 126 229 118 89 69 54 76 76 32 52 327 142 192 259 240 270 268 291 77 163 349 227 105 290 297 309 325 347 322 330 312
178 185 174 180 156 157 148 117 91 186 126 173 174 145 154 156 101 105 85 56 104 105 41 357 333 301 265 303 320 354 8 343 350 3 263 313 329 254 289 324 331 333 336 337 338
172 166 158 180 162 160 146 86 187 192 184 134 125 114 160 135 37 97 109 112 56 91 104 142 269 265 327 175 276 28 36 114 264 307 294 304 231 266 321 335 333 346 350 347 334
149 158 151 160 159 158 89 177 200 201 158 130 83 117 143 96 125 111 106 162 165 170 134 147 259 280 310 340 128 241 55 187 221 248 259 256 299 311 0 347 340 345 342 4 347
137 138 170 155 165 146 118 218 179 167 116 109 148 144 155 150 115 135 155 205 131 159 138 185 175 239 281 26 18 124 239 22 312 309 309 292 294 328 348 340 342 340 346 7 357
121 113 171 175 160 141 195 217 147 143 124 120 129 118 135 142 129 146 160 92 135 156 99 123 119 273 24 178 197 344 25 25 253 216 279 299 325 39 351 345 339 337 355 14 10
130 129 168 159 162 172 167 200 137 158 96 103 97 110 117 125 107 120 162 151 123 148 104 149 134 245 248 273 220 182 160 126 56 296 241 260 280 355 343 338 338 348 1 14 18
120 90 142 190 170 182 197 171 132 129 121 114 109 116 114 128 109 129 102 18 102 121 157 176 56 2 346 2 12 288 272 158 302 251 232 315 297 339 345 336 331 359 11 15 10
110 122 116 200 187 175 158 139 110 52 85 97 104 87 104 92 54 144 118 179 98 110 110 101 127 157 190 219 176 292 299 329 335 277 328 274 315 333 344 341 347 15 23 17 9
107 168 151 183 230 175 108 128 129 137 79 113 69 145 131 120 98 114 105 128 32 134 72 99 190 184 238 257 252 261 275 317 248 268 295 316 315 341 347 339 2 16 16 16 10
115 144 84 146 154 120 118 165 138 90 145 140 137 120 116 126 162 171 136 179 158 24 97 41 222 191 258 248 228 251 209 305 305 329 304 317 312 343 333 350 15 13 11 11 9
193 65 97 108 115 144 143 144 124 139 30 126 129 111 98 138 129 144 153 166 158 139 133 142 164 186 262 299 325 27 203 228 240 27 302 318 316 325 338 2 11 4 5 8 8
Height
804 803 802 801 801 799 798 797 795 793 792 791 788 785 782 780 780 780 781 783 781 778 776 774 773 772 772 775 777 782 807 815 800 796 786 773 775 764 763 768 765 760 758 752 747
804 803 801 801 799 798 796 796 794 792 792 790 788 785 781 779 780 781 783 782 780 778 776 775 775 774 779 779 783 791 808 803 792 785 785 779 778 771 770 771 765 761 754 750 748
801 802 800 800 798 797 795 793 793 792 791 789 787 785 781 778 780 782 782 782 781 779 777 777 777 777 780 781 784 792 798 792 785 783 785 783 779 771 773 771 764 759 753 748 745
799 798 799 797 797 796 794 792 791 790 789 788 786 785 782 779 789 780 781 781 781 780 779 778 779 782 785 788 789 791 788 787 787 782 786 783 774 774 769 766 756 753 750 747 745
797 796 796 795 795 795 794 792 790 789 787 787 786 785 784 783 780 778 779 780 780 780 779 780 783 785 788 790 789 791 790 789 786 786 783 778 781 776 768 758 758 753 749 747 744
794 793 794 793 792 793 792 792 789 789 787 786 784 784 786 786 780 778 777 778 779 780 780 780 782 782 787 790 791 790 790 791 788 783 779 779 773 770 762 761 758 756 754 750 745
790 788 789 790 789 791 790 789 788 787 787 785 785 783 785 781 779 778 776 778 778 779 779 779 779 783 786 790 788 789 793 792 788 786 782 772 767 770 763 762 762 757 752 748 745
784 787 787 787 787 789 789 786 786 785 785 785 785 784 782 778 777 778 776 776 778 779 778 779 779 783 788 788 793 796 802 809 792 791 784 786 766 761 764 762 755 754 749 742 735
779 783 782 784 785 786 787 785 784 783 784 784 786 783 781 778 778 777 776 776 776 778 778 779 780 793 796 801 811 815 820 812 803 795 795 794 771 747 764 764 752 747 741 736 724
779 777 781 783 782 784 784 783 781 781 783 785 785 786 779 779 778 777 776 776 777 778 781 784 795 804 812 814 822 821 821 809 809 800 795 799 780 762 753 762 756 743 734 729 723
772 775 776 780 781 782 783 781 782 783 782 780 779 778 778 778 778 777 777 777 779 784 792 796 806 814 810 807 807 810 814 816 805 796 799 795 776 759 752 748 746 740 732 722 715
765 770 773 776 779 780 780 780 780 785 785 777 779 777 775 778 781 778 778 782 785 795 794 807 814 804 804 806 810 812 816 811 794 790 793 784 768 751 745 741 734 727 721 713 704
757 764 769 772 777 779 778 780 781 782 789 777 774 775 775 778 779 779 778 783 790 793 798 808 807 803 805 811 814 814 815 810 804 783 787 783 763 742 726 728 721 712 704 699 691
748 758 765 770 776 777 777 776 781 784 796 778 772 770 772 776 778 775 777 783 789 795 805 805 803 806 807 809 813 819 803 805 801 806 804 788 797 746 730 724 714 703 697 684 676
741 751 758 766 765 770 772 777 780 784 798 769 769 765 771 777 775 778 778 781 791 793 799 805 803 808 810 809 810 813 803 799 793 800 802 790 801 760 734 722 713 711 710 682 662
735 745 749 761 764 767 769 776 782 796 790 770 766 768 775 776 774 777 780 784 791 799 803 804 804 806 806 805 807 803 801 793 791 798 797 779 786 747 738 725 712 706 703 680 659
732 737 741 756 756 766 766 775 792 795 759 766 767 766 774 779 780 778 786 794 800 805 812 813 808 806 805 813 809 810 809 813 797 788 781 761 774 746 730 720 716 705 697 677 661
722 736 737 756 757 764 766 779 787 761 761 754 760 768 774 775 782 784 790 802 800 806 825 822 822 809 808 809 810 814 815 839 856 804 788 767 771 749 724 721 711 706 694 682 668
722 737 735 749 753 756 770 781 753 752 751 754 762 770 774 777 781 786 792 807 800 804 821 823 819 807 806 806 812 819 821 811 843 808 803 770 755 733 729 726 715 707 694 685 674
712 735 742 741 755 753 771 751 750 745 748 748 759 765 778 780 784 789 794 794 796 799 807 814 827 809 806 805 806 811 809 832 824 821 797 771 755 746 744 734 722 706 699 693 684
714 733 743 752 754 758 764 759 744 745 743 750 758 767 772 779 786 791 797 793 793 802 801 811 819 812 810 823 816 820 830 822 817 817 803 782 752 754 750 743 734 714 709 703 698
710 727 742 744 753 757 757 748 739 746 746 753 758 762 772 777 784 791 795 793 793 798 804 811 823 825 815 807 806 809 808 813 826 820 798 793 765 745 752 744 740 729 723 717 712
710 720 736 743 747 746 743 738 739 741 747 752 759 759 766 776 786 789 794 797 795 798 804 809 827 839 817 812 807 807 807 806 809 809 800 798 764 757 760 754 742 734 731 729 725
704 721 745 746 742 735 735 736 741 741 746 753 761 764 768 778 782 790 796 800 798 796 796 803 821 842 857 832 822 823 811 809 812 811 799 790 786 769 771 767 743 739 738 741 737
701 718 715 735 744 732 727 732 738 750 748 752 762 765 768 782 787 794 798 802 802 797 805 809 827 826 819 814 815 812 813 809 824 809 801 796 789 784 785 781 765 756 748 745 744
696 702 711 718 727 727 730 735 737 747 754 757 763 766 770 776 779 793 797 798 799 807 807 814 817 816 812 805 810 806 804 808 809 802 801 795 787 792 787 784 771 768 763 756 752
696 695 700 724 728 728 734 732 737 749 753 752 759 773 776 781 782 786 790 795 800 806 810 814 817 817 807 797 804 812 807 814 820 808 811 807 800 792 784 786 782 776 772 768 763